• In Hungary
  • List of Countries
  • For 7 days
  • Water Temperature
  • Satellite Maps
  • Weather Map
  • News
  • Weather Widgets
  • user-avatar
    Login

    Hourly Weather Naftalan

    Today, 17 August, Thursday

    Time Temperature Precipitation Wind Pressure Humidity
    00:00 +29°C° 0 mm 3 mps 761 mmHg 53%
    01:00 +28°C° 0 mm 3 mps 761 mmHg 54%
    02:00 +27°C° 0 mm 3 mps 760 mmHg 55%
    03:00 +27°C° 0 mm 3 mps 760 mmHg 55%
    04:00 +27°C° 0 mm 3 mps 760 mmHg 54%
    05:00 +27°C° 0 mm 3 mps 760 mmHg 52%
    06:00 +28°C° 0 mm 3 mps 760 mmHg 51%
    07:00 +30°C° 0 mm 3 mps 760 mmHg 45%
    08:00 +33°C° 0 mm 3 mps 760 mmHg 40%
    09:00 +35°C° 0 mm 3 mps 761 mmHg 34%
    10:00 +36°C° 0 mm 4 mps 760 mmHg 31%
    11:00 +37°C° 0 mm 4 mps 760 mmHg 29%
    12:00 +38°C° 0 mm 4 mps 760 mmHg 26%
    13:00 +39°C° 0 mm 5 mps 760 mmHg 27%
    14:00 +39°C° 0 mm 6 mps 760 mmHg 28%
    15:00 +39°C° 0 mm 6 mps 759 mmHg 28%
    16:00 +36°C° 0 mm 6 mps 759 mmHg 31%
    17:00 +35°C° 0 mm 5 mps 759 mmHg 33%
    18:00 +34°C° 0 mm 5 mps 759 mmHg 35%
    19:00 +32°C° 0 mm 4 mps 760 mmHg 41%
    20:00 +30°C° 0 mm 4 mps 760 mmHg 46%
    21:00 +29°C° 0 mm 3 mps 760 mmHg 51%
    22:00 +29°C° 0 mm 3 mps 760 mmHg 52%
    23:00 +29°C° 0 mm 3 mps 760 mmHg 53%

    Tomorrow, 18 August, Friday

    Time Temperature Precipitation Wind Pressure Humidity
    00:00 +28°C° 0 mm 3 mps 760 mmHg 54%
    01:00 +28°C° 0 mm 3 mps 759 mmHg 55%
    02:00 +28°C° 0 mm 3 mps 759 mmHg 55%
    03:00 +27°C° 0 mm 3 mps 759 mmHg 55%
    04:00 +27°C° 0 mm 3 mps 759 mmHg 52%
    05:00 +28°C° 0 mm 4 mps 759 mmHg 49%
    06:00 +28°C° 0 mm 4 mps 759 mmHg 46%
    07:00 +30°C° 0 mm 4 mps 760 mmHg 40%
    08:00 +33°C° 0 mm 4 mps 760 mmHg 33%
    09:00 +35°C° 0 mm 5 mps 760 mmHg 26%
    10:00 +36°C° 0 mm 4 mps 760 mmHg 24%
    11:00 +38°C° 0 mm 4 mps 760 mmHg 22%
    12:00 +40°C° 0 mm 4 mps 760 mmHg 20%
    13:00 +40°C° 0 mm 5 mps 759 mmHg 22%
    14:00 +40°C° 0 mm 6 mps 759 mmHg 23%
    15:00 +40°C° 0 mm 7 mps 759 mmHg 24%
    16:00 +38°C° 0 mm 6 mps 759 mmHg 25%
    17:00 +36°C° 0 mm 6 mps 760 mmHg 27%
    18:00 +34°C° 0 mm 5 mps 760 mmHg 28%
    19:00 +33°C° 0 mm 5 mps 760 mmHg 35%
    20:00 +30°C° 0 mm 4 mps 761 mmHg 41%
    21:00 +29°C° 0 mm 3 mps 761 mmHg 48%
    22:00 +28°C° 0 mm 3 mps 761 mmHg 50%
    23:00 +28°C° 0 mm 3 mps 761 mmHg 52%

    Day after tomorrow, 19 August, Saturday

    Time Temperature Precipitation Wind Pressure Humidity
    00:00 +27°C° 0 mm 3 mps 761 mmHg 54%
    01:00 +27°C° 0 mm 3 mps 761 mmHg 52%
    02:00 +27°C° 0 mm 3 mps 761 mmHg 50%
    03:00 +27°C° 0 mm 4 mps 761 mmHg 48%
    04:00 +27°C° 0 mm 4 mps 761 mmHg 47%
    05:00 +28°C° 0 mm 4 mps 762 mmHg 46%
    06:00 +28°C° 0 mm 4 mps 762 mmHg 45%
    07:00 +30°C° 0 mm 4 mps 762 mmHg 40%
    08:00 +33°C° 0 mm 4 mps 762 mmHg 35%
    09:00 +35°C° 0 mm 4 mps 763 mmHg 30%
    10:00 +37°C° 0 mm 4 mps 762 mmHg 27%
    11:00 +38°C° 0 mm 4 mps 762 mmHg 23%
    12:00 +41°C° 0 mm 4 mps 762 mmHg 19%
    13:00 +40°C° 0 mm 5 mps 762 mmHg 18%
    14:00 +40°C° 0 mm 6 mps 762 mmHg 17%
    15:00 +40°C° 0 mm 6 mps 762 mmHg 16%
    16:00 +39°C° 0 mm 6 mps 762 mmHg 19%
    17:00 +36°C° 0 mm 5 mps 762 mmHg 22%
    18:00 +34°C° 0 mm 4 mps 762 mmHg 25%
    19:00 +33°C° 0 mm 4 mps 763 mmHg 34%
    20:00 +30°C° 0 mm 3 mps 763 mmHg 42%
    21:00 +28°C° 0 mm 3 mps 764 mmHg 51%
    22:00 +28°C° 0 mm 2 mps 763 mmHg 50%
    23:00 +28°C° 0 mm 2 mps 763 mmHg 50%

    20 August, Sunday

    Time Temperature Precipitation Wind Pressure Humidity
    00:00 +27°C° 0 mm 2 mps 763 mmHg 50%
    01:00 +27°C° 0 mm 1 mps 763 mmHg 50%
    02:00 +27°C° 0 mm 1 mps 763 mmHg 50%
    03:00 +26°C° 0 mm 1 mps 763 mmHg 49%
    04:00 +27°C° 0 mm 1 mps 763 mmHg 47%
    05:00 +27°C° 0 mm 1 mps 763 mmHg 45%
    06:00 +27°C° 0 mm 1 mps 763 mmHg 43%
    07:00 +30°C° 0 mm 1 mps 763 mmHg 37%
    08:00 +32°C° 0 mm 1 mps 763 mmHg 30%
    09:00 +34°C° 0 mm 1 mps 763 mmHg 24%
    10:00 +37°C° 0 mm 2 mps 763 mmHg 21%
    11:00 +38°C° 0 mm 3 mps 762 mmHg 18%
    12:00 +41°C° 0 mm 4 mps 762 mmHg 15%
    13:00 +41°C° 0 mm 4 mps 762 mmHg 16%
    14:00 +41°C° 0 mm 5 mps 761 mmHg 17%
    15:00 +40°C° 0 mm 6 mps 761 mmHg 18%
    16:00 +39°C° 0 mm 5 mps 761 mmHg 24%
    17:00 +36°C° 0 mm 5 mps 761 mmHg 30%
    18:00 +34°C° 0 mm 4 mps 761 mmHg 37%
    19:00 +32°C° 0 mm 4 mps 761 mmHg 43%
    20:00 +30°C° 0 mm 3 mps 762 mmHg 50%
    21:00 +28°C° 0 mm 2 mps 762 mmHg 57%
    22:00 +28°C° 0 mm 2 mps 762 mmHg 57%
    23:00 +28°C° 0 mm 2 mps 761 mmHg 57%

    21 August, Monday

    Time Temperature Precipitation Wind Pressure Humidity
    00:00 +27°C° 0 mm 2 mps 761 mmHg 58%
    01:00 +27°C° 0 mm 2 mps 761 mmHg 56%
    02:00 +27°C° 0 mm 1 mps 761 mmHg 55%
    03:00 +26°C° 0 mm 1 mps 761 mmHg 53%
    04:00 +27°C° 0 mm 2 mps 761 mmHg 51%
    05:00 +27°C° 0 mm 2 mps 761 mmHg 49%
    06:00 +27°C° 0 mm 2 mps 761 mmHg 47%
    07:00 +30°C° 0 mm 2 mps 761 mmHg 42%
    08:00 +32°C° 0 mm 2 mps 761 mmHg 36%
    09:00 +35°C° 0 mm 3 mps 761 mmHg 30%
    10:00 +36°C° 0 mm 3 mps 761 mmHg 27%
    11:00 +38°C° 0 mm 3 mps 760 mmHg 23%
    12:00 +39°C° 0 mm 3 mps 760 mmHg 19%
    13:00 +40°C° 0 mm 3 mps 760 mmHg 18%
    14:00 +41°C° 0 mm 4 mps 759 mmHg 18%
    15:00 +42°C° 0 mm 5 mps 759 mmHg 17%
    16:00 +40°C° 0 mm 5 mps 759 mmHg 22%
    17:00 +37°C° 0 mm 4 mps 759 mmHg 26%
    18:00 +35°C° 0 mm 4 mps 759 mmHg 31%
    19:00 +33°C° 0 mm 4 mps 759 mmHg 37%
    20:00 +31°C° 0 mm 3 mps 759 mmHg 44%
    21:00 +29°C° 0 mm 2 mps 760 mmHg 50%
    22:00 +29°C° 0 mm 2 mps 760 mmHg 51%
    23:00 +28°C° 0 mm 2 mps 759 mmHg 53%

    22 August, Tuesday

    Time Temperature Precipitation Wind Pressure Humidity
    00:00 +28°C° 0 mm 2 mps 759 mmHg 54%
    01:00 +28°C° 0 mm 2 mps 759 mmHg 54%
    02:00 +28°C° 0 mm 2 mps 759 mmHg 55%
    03:00 +27°C° 0 mm 2 mps 759 mmHg 55%
    04:00 +27°C° 0 mm 1 mps 759 mmHg 54%
    05:00 +28°C° 0 mm 1 mps 759 mmHg 53%
    06:00 +28°C° 0 mm 1 mps 759 mmHg 51%
    07:00 +30°C° 0 mm 1 mps 759 mmHg 44%
    08:00 +33°C° 0 mm 1 mps 759 mmHg 37%
    09:00 +35°C° 0 mm 1 mps 759 mmHg 30%
    10:00 +37°C° 0 mm 2 mps 759 mmHg 25%
    11:00 +39°C° 0 mm 3 mps 759 mmHg 21%
    12:00 +42°C° 0 mm 3 mps 758 mmHg 17%
    13:00 +42°C° 0 mm 4 mps 758 mmHg 17%
    14:00 +42°C° 0 mm 5 mps 758 mmHg 17%
    15:00 +41°C° 0 mm 6 mps 757 mmHg 16%
    16:00 +39°C° 0 mm 6 mps 757 mmHg 22%
    17:00 +37°C° 0 mm 5 mps 757 mmHg 28%
    18:00 +35°C° 0 mm 5 mps 757 mmHg 34%
    19:00 +33°C° 0 mm 5 mps 757 mmHg 41%
    20:00 +32°C° 0 mm 4 mps 757 mmHg 49%
    21:00 +29°C° 0 mm 4 mps 758 mmHg 56%
    22:00 +29°C° 0 mm 3 mps 758 mmHg 58%
    23:00 +29°C° 0 mm 3 mps 758 mmHg 59%
    Show more